| time (UTC) | temp F | wind direction | speed knots | gust knots | rain 1hr in | rain 24hr in | rain mn in | humidity % | barometer mb |
| 20260502223218 | 58 | 242 | 0.0 | 0.0 | 0.00 | 0.02 | 0.02 | 93 | 1013.8 |
| 20260502222716 | 58 | 189 | 0.0 | 0.0 | 0.00 | 0.02 | 0.02 | 93 | 1014.3 |
| 20260502222212 | 58 | 253 | 0.0 | 0.0 | 0.00 | 0.02 | 0.02 | 94 | 1014.1 |
| 20260502221708 | 59 | 235 | 0.0 | 0.0 | 0.00 | 0.02 | 0.02 | 94 | 1013.9 |
| 20260502221205 | 58 | 213 | 0.0 | 0.0 | 0.00 | 0.02 | 0.02 | 93 | 1013.7 |
| 20260502220701 | 58 | 71 | 0.0 | 0.0 | 0.00 | 0.02 | 0.02 | 91 | 1013.9 |
| 20260502220157 | 59 | 246 | 0.0 | 0.0 | 0.00 | 0.02 | 0.02 | 92 | 1013.7 |
| 20260502215654 | 58 | 213 | 0.0 | 0.0 | 0.00 | 0.02 | 0.02 | 92 | 1013.7 |
| 20260502215151 | 58 | 184 | 0.0 | 0.0 | 0.00 | 0.02 | 0.02 | 91 | 1013.5 |
| 20260502214649 | 59 | 33 | 0.0 | 0.0 | 0.00 | 0.02 | 0.02 | 91 | 1013.5 |
| 20260502214146 | 59 | 231 | 0.0 | 0.0 | 0.00 | 0.02 | 0.02 | 94 | 1013.6 |
| 20260502213643 | 58 | 243 | 0.0 | 0.0 | 0.00 | 0.02 | 0.02 | 93 | 1013.6 |
| 20260502213140 | 59 | 296 | 0.0 | 0.0 | 0.00 | 0.02 | 0.02 | 93 | 1013.7 |
| 20260502212639 | 58 | 267 | 0.0 | 0.0 | 0.00 | 0.02 | 0.02 | 96 | 1013.6 |
| 20260502212137 | 57 | 214 | 0.0 | 0.0 | 0.00 | 0.02 | 0.02 | 97 | 1013.8 |
| 20260502211632 | 57 | 214 | 0.0 | 0.0 | 0.00 | 0.02 | 0.02 | 98 | 1013.8 |
| 20260502211129 | 57 | 160 | 0.0 | 0.0 | 0.00 | 0.02 | 0.02 | 98 | 1013.8 |
| 20260502210627 | 57 | 241 | 0.0 | 0.0 | 0.00 | 0.02 | 0.02 | 98 | 1013.7 |
| 20260502210124 | 56 | 266 | 0.0 | 0.0 | 0.00 | 0.02 | 0.02 | 98 | 1013.5 |
| 20260502205620 | 56 | 223 | 0.0 | 0.0 | 0.00 | 0.02 | 0.02 | 99 | 1013.6 |
| 20260502205117 | 56 | 226 | 0.0 | 0.0 | 0.00 | 0.02 | 0.02 | 99 | 1013.4 |
| 20260502204614 | 56 | 195 | 0.0 | 0.0 | 0.00 | 0.02 | 0.02 | 99 | 1013.4 |
| 20260502204112 | 55 | 110 | 0.0 | 0.0 | 0.00 | 0.02 | 0.02 | 99 | 1013.3 |
| 20260502203609 | 56 | 12 | 0.0 | 0.0 | 0.00 | 0.02 | 0.02 | 99 | 1013.4 |
| 20260502203106 | 55 | 167 | 0.0 | 0.0 | 0.00 | 0.02 | 0.02 | 99 | 1013.3 |
| 20260502202601 | 56 | 250 | 0.0 | 0.0 | 0.00 | 0.02 | 0.02 | 99 | 1013.4 |
| 20260502202100 | 56 | 229 | 0.0 | 0.0 | 0.00 | 0.02 | 0.02 | 99 | 1013.7 |
| 20260502201555 | 56 | 268 | 0.0 | 0.0 | 0.00 | 0.02 | 0.02 | 98 | 1013.4 |
| 20260502201052 | 56 | 210 | 0.0 | 0.0 | 0.00 | 0.02 | 0.02 | 98 | 1013.5 |
| 20260502200548 | 57 | 150 | 0.0 | 0.0 | 0.00 | 0.02 | 0.02 | 97 | 1013.6 |
| 20260502200046 | 59 | 224 | 0.0 | 0.0 | 0.00 | 0.02 | 0.02 | 98 | 1013.5 |
| 20260502195544 | 59 | 216 | 0.0 | 0.0 | 0.00 | 0.02 | 0.02 | 98 | 1013.4 |
| 20260502195039 | 59 | 213 | 0.0 | 0.0 | 0.00 | 0.02 | 0.02 | 98 | 1013.3 |
| 20260502194536 | 59 | 220 | 0.0 | 0.0 | 0.00 | 0.02 | 0.02 | 98 | 1013.3 |
| 20260502194032 | 60 | 213 | 0.0 | 0.0 | 0.00 | 0.02 | 0.02 | 97 | 1013.4 |
| 20260502193530 | 59 | 244 | 0.0 | 0.0 | 0.00 | 0.02 | 0.02 | 98 | 1013.4 |
| 20260502193026 | 59 | 204 | 0.0 | 0.0 | 0.00 | 0.02 | 0.02 | 97 | 1013.2 |
| 20260502192522 | 59 | 209 | 0.0 | 0.0 | 0.00 | 0.02 | 0.02 | 97 | 1013.2 |
| 20260502192020 | 59 | 201 | 0.0 | 0.0 | 0.00 | 0.02 | 0.02 | 96 | 1013.3 |
| 20260502191516 | 60 | 203 | 0.0 | 0.0 | 0.00 | 0.02 | 0.02 | 96 | 1013.5 |
| 20260502191014 | 60 | 220 | 0.0 | 0.0 | 0.00 | 0.02 | 0.02 | 96 | 1013.3 |
| 20260502190512 | 61 | 220 | 0.0 | 0.0 | 0.00 | 0.02 | 0.02 | 95 | 1013.3 |
| 20260502190008 | 61 | 79 | 0.0 | 0.0 | 0.00 | 0.02 | 0.02 | 94 | 1013.4 |
| 20260502185503 | 61 | 262 | 0.0 | 0.0 | 0.00 | 0.02 | 0.02 | 94 | 1013.1 |
| 20260502185000 | 61 | 210 | 0.0 | 0.0 | 0.00 | 0.02 | 0.02 | 96 | 1013.1 |
| 20260502184455 | 62 | 231 | 0.0 | 0.0 | 0.00 | 0.02 | 0.02 | 98 | 1013.4 |
| 20260502183953 | 61 | 237 | 0.0 | 0.0 | 0.00 | 0.02 | 0.02 | 98 | 1013.3 |
| 20260502183449 | 61 | 229 | 0.0 | 0.0 | 0.00 | 0.02 | 0.02 | 98 | 1013.3 |
| 20260502182944 | 61 | 243 | 0.0 | 0.0 | 0.00 | 0.02 | 0.02 | 98 | 1013.4 |
| 20260502182440 | 62 | 244 | 0.0 | 0.0 | 0.00 | 0.02 | 0.02 | 98 | 1013.4 |
| 20260502181936 | 62 | 241 | 0.0 | 0.0 | 0.00 | 0.02 | 0.02 | 99 | 1013.5 |
| 20260502181434 | 61 | 231 | 0.0 | 0.0 | 0.00 | 0.02 | 0.02 | 99 | 1013.4 |
| 20260502180933 | 61 | 213 | 0.0 | 0.0 | 0.00 | 0.02 | 0.02 | 99 | 1013.4 |
| 20260502180430 | 61 | 249 | 0.0 | 0.0 | 0.00 | 0.02 | 0.02 | 99 | 1013.1 |
| 20260502170348 | 59 | 77 | 0.0 | 0.0 | 0.00 | 0.02 | 0.02 | 99 | 1013.2 |
| 20260502164336 | 60 | 206 | 0.0 | 0.0 | 0.00 | 0.02 | 0.02 | 99 | 1013.5 |
| 20260502163831 | 59 | 215 | 0.0 | 0.0 | 0.00 | 0.02 | 0.02 | 99 | 1013.8 |
| 20260502163328 | 59 | 215 | 0.0 | 0.0 | 0.00 | 0.02 | 0.02 | 99 | 1013.9 |
| 20260502162826 | 59 | 247 | 0.0 | 0.0 | 0.00 | 0.02 | 0.02 | 99 | 1014.3 |
| 20260502162322 | 59 | 234 | 0.0 | 0.0 | 0.00 | 0.02 | 0.02 | 99 | 1013.9 |
| 20260502161819 | 59 | 230 | 0.0 | 0.0 | 0.00 | 0.02 | 0.02 | 99 | 1014.1 |
| 20260502161315 | 59 | 225 | 0.0 | 0.0 | 0.00 | 0.02 | 0.02 | 99 | 1014.1 |
| 20260502160813 | 59 | 204 | 0.0 | 0.0 | 0.00 | 0.02 | 0.02 | 99 | 1013.8 |
| 20260502160312 | 59 | 233 | 0.0 | 0.0 | 0.00 | 0.02 | 0.02 | 99 | 1014.1 |
| 20260502152247 | 59 | 235 | 0.0 | 0.0 | 0.00 | 0.02 | 0.02 | 99 | 1014.0 |
| 20260502151744 | 59 | 215 | 0.0 | 0.0 | 0.00 | 0.02 | 0.02 | 99 | 1014.1 |
| 20260502151241 | 59 | 226 | 0.0 | 0.0 | 0.00 | 0.02 | 0.02 | 99 | 1014.2 |
| 20260502150739 | 59 | 255 | 0.0 | 0.0 | 0.00 | 0.02 | 0.02 | 99 | 1014.0 |
| 20260502150236 | 58 | 232 | 0.0 | 0.0 | 0.00 | 0.02 | 0.02 | 99 | 1013.8 |
| 20260502130624 | 58 | 223 | 0.0 | 0.0 | 0.00 | 0.02 | 0.02 | 99 | 1013.3 |
| 20260502130122 | 59 | 207 | 0.0 | 0.0 | 0.00 | 0.02 | 0.02 | 99 | 1013.2 |
| 20260502123607 | 58 | 207 | 0.0 | 0.0 | 0.00 | 0.02 | 0.02 | 99 | 1013.5 |
| 20260502123103 | 58 | 219 | 0.0 | 0.0 | 0.00 | 0.02 | 0.02 | 99 | 1013.5 |
| 20260502122600 | 58 | 215 | 0.0 | 0.0 | 0.00 | 0.02 | 0.02 | 99 | 1013.8 |
| 20260502122057 | 58 | 260 | 0.0 | 0.0 | 0.00 | 0.02 | 0.02 | 99 | 1014.0 |
| 20260502121555 | 58 | 239 | 0.0 | 0.0 | 0.00 | 0.02 | 0.02 | 99 | 1014.0 |
| 20260502121052 | 58 | 224 | 0.0 | 0.0 | 0.00 | 0.02 | 0.02 | 99 | 1014.2 |
| 20260502120548 | 58 | 231 | 0.0 | 0.0 | 0.00 | 0.02 | 0.02 | 99 | 1014.0 |
| 20260502115544 | 58 | 242 | 0.0 | 0.0 | 0.00 | 0.02 | 0.02 | 99 | 1013.8 |
| 20260502115039 | 58 | 227 | 0.0 | 0.0 | 0.00 | 0.02 | 0.02 | 99 | 1013.5 |
| 20260502114536 | 58 | 227 | 0.0 | 0.0 | 0.00 | 0.02 | 0.02 | 99 | 1013.0 |
| 20260502114033 | 58 | 227 | 0.0 | 0.0 | 0.00 | 0.02 | 0.02 | 99 | 1012.7 |
| 20260502113531 | 58 | 226 | 0.0 | 0.0 | 0.00 | 0.02 | 0.02 | 99 | 1012.8 |
| 20260502113029 | 58 | 226 | 0.0 | 0.0 | 0.00 | 0.02 | 0.02 | 99 | 1012.7 |
| 20260502112526 | 58 | 226 | 0.0 | 0.0 | 0.00 | 0.02 | 0.02 | 99 | 1012.7 |
| 20260502112024 | 58 | 228 | 0.0 | 0.0 | 0.00 | 0.02 | 0.02 | 99 | 1012.8 |
| 20260502111521 | 58 | 228 | 0.0 | 0.0 | 0.00 | 0.02 | 0.02 | 99 | 1012.7 |
| 20260502111018 | 58 | 228 | 0.0 | 0.0 | 0.00 | 0.02 | 0.02 | 99 | 1012.7 |
| 20260502110515 | 58 | 214 | 0.0 | 0.0 | 0.00 | 0.02 | 0.02 | 99 | 1012.9 |
| 20260502110013 | 58 | 214 | 0.0 | 0.0 | 0.00 | 0.02 | 0.02 | 99 | 1012.8 |
| 20260502105510 | 58 | 217 | 0.0 | 0.0 | 0.00 | 0.02 | 0.02 | 99 | 1012.8 |
| 20260502105008 | 58 | 217 | 0.0 | 0.0 | 0.00 | 0.02 | 0.02 | 99 | 1012.6 |
| 20260502104505 | 58 | 217 | 0.0 | 0.0 | 0.00 | 0.02 | 0.02 | 99 | 1012.4 |
| 20260502104002 | 58 | 211 | 0.0 | 0.0 | 0.00 | 0.02 | 0.02 | 99 | 1012.5 |
| 20260502103459 | 58 | 212 | 0.0 | 0.0 | 0.00 | 0.02 | 0.02 | 99 | 1012.5 |
| 20260502102956 | 58 | 212 | 0.0 | 0.0 | 0.00 | 0.02 | 0.02 | 99 | 1012.5 |
| 20260502102454 | 59 | 211 | 0.0 | 0.0 | 0.00 | 0.02 | 0.02 | 99 | 1012.3 |
| 20260502101950 | 59 | 212 | 0.0 | 0.0 | 0.00 | 0.02 | 0.02 | 99 | 1012.5 |
| 20260502101449 | 59 | 212 | 0.0 | 0.0 | 0.00 | 0.02 | 0.02 | 99 | 1012.5 |
| 20260502100947 | 58 | 212 | 0.0 | 0.0 | 0.00 | 0.02 | 0.02 | 99 | 1012.5 |
| 20260502100445 | 58 | 212 | 0.0 | 0.0 | 0.00 | 0.02 | 0.02 | 99 | 1012.7 |
| 20260502091420 | 59 | 212 | 0.0 | 0.0 | 0.00 | 0.02 | 0.02 | 99 | 1012.9 |
| 20260502090916 | 59 | 211 | 0.0 | 0.0 | 0.00 | 0.02 | 0.02 | 99 | 1013.0 |
| 20260502090414 | 59 | 234 | 0.0 | 0.0 | 0.00 | 0.02 | 0.02 | 99 | 1013.1 |
| 20260502071308 | 61 | 215 | 0.0 | 0.0 | 0.00 | 0.01 | 0.01 | 99 | 1013.1 |
| 20260502070807 | 61 | 216 | 0.0 | 0.0 | 0.00 | 0.01 | 0.01 | 99 | 1013.2 |
| 20260502070304 | 61 | 216 | 0.0 | 0.0 | 0.00 | 0.01 | 0.01 | 99 | 1013.3 |
| 20260502065803 | 61 | 216 | 0.0 | 0.0 | 0.00 | 0.01 | 0.01 | 99 | 1013.2 |
| 20260502065300 | 61 | 217 | 0.0 | 0.0 | 0.00 | 0.01 | 0.01 | 99 | 1013.3 |
| 20260502064758 | 60 | 217 | 0.0 | 0.0 | 0.00 | 0.01 | 0.01 | 99 | 1013.3 |
| 20260502064256 | 61 | 216 | 0.0 | 0.0 | 0.00 | 0.01 | 0.01 | 99 | 1013.7 |
| 20260502063753 | 61 | 216 | 0.0 | 0.0 | 0.00 | 0.01 | 0.01 | 99 | 1013.4 |
| 20260502063251 | 61 | 216 | 0.0 | 0.0 | 0.00 | 0.01 | 0.01 | 99 | 1013.6 |
| 20260502062748 | 61 | 216 | 0.0 | 0.0 | 0.00 | 0.01 | 0.01 | 99 | 1013.6 |
| 20260502062245 | 61 | 216 | 0.0 | 0.0 | 0.00 | 0.01 | 0.01 | 99 | 1013.8 |
| 20260502061744 | 61 | 216 | 0.0 | 0.0 | 0.00 | 0.01 | 0.01 | 99 | 1013.9 |
| 20260502061241 | 61 | 216 | 0.0 | 0.0 | 0.00 | 0.01 | 0.01 | 99 | 1013.9 |
| 20260502060736 | 61 | 217 | 0.0 | 0.0 | 0.00 | 0.01 | 0.01 | 99 | 1013.7 |
| 20260502060232 | 61 | 217 | 0.0 | 0.0 | 0.00 | 0.01 | 0.01 | 99 | 1013.9 |
| 20260502055731 | 61 | 217 | 0.0 | 0.0 | 0.00 | 0.01 | 0.01 | 99 | 1013.9 |
| 20260502055228 | 61 | 217 | 0.0 | 0.0 | 0.00 | 0.01 | 0.01 | 99 | 1013.7 |
| 20260502054727 | 61 | 217 | 0.0 | 0.0 | 0.00 | 0.01 | 0.01 | 99 | 1013.5 |
| 20260502054224 | 61 | 217 | 0.0 | 0.0 | 0.00 | 0.01 | 0.01 | 99 | 1013.6 |
| 20260502053721 | 61 | 217 | 0.0 | 0.0 | 0.00 | 0.01 | 0.01 | 99 | 1013.8 |
| 20260502053218 | 61 | 217 | 0.0 | 0.0 | 0.00 | 0.01 | 0.01 | 99 | 1013.8 |
| 20260502052716 | 61 | 217 | 0.0 | 0.0 | 0.00 | 0.01 | 0.01 | 99 | 1013.9 |
| 20260502052214 | 61 | 216 | 0.0 | 0.0 | 0.00 | 0.01 | 0.01 | 99 | 1014.1 |
| 20260502051712 | 61 | 216 | 0.0 | 0.0 | 0.00 | 0.01 | 0.01 | 99 | 1014.4 |
| 20260502051210 | 61 | 216 | 0.0 | 0.0 | 0.00 | 0.01 | 0.01 | 99 | 1014.2 |
| 20260502050706 | 61 | 216 | 0.0 | 0.0 | 0.00 | 0.01 | 0.01 | 99 | 1014.4 |
| 20260502050202 | 61 | 216 | 0.0 | 0.0 | 0.05 | 0.01 | 0.01 | 99 | 1014.3 |
| 20260502045659 | 61 | 216 | 0.0 | 0.0 | 0.05 | 0.01 | 0.01 | 99 | 1014.6 |
| 20260502045156 | 61 | 216 | 0.0 | 0.0 | 0.00 | 0.00 | 0.00 | 99 | 1014.4 |
| 20260502044653 | 61 | 216 | 0.0 | 0.0 | 0.00 | 0.00 | 0.00 | 99 | 1014.4 |
| 20260502044149 | 61 | 216 | 0.0 | 0.0 | 0.00 | 0.00 | 0.00 | 99 | 1014.4 |
| 20260502043647 | 61 | 216 | 0.0 | 0.0 | 0.00 | 0.00 | 0.00 | 99 | 1014.3 |
| 20260502043144 | 61 | 216 | 0.0 | 0.0 | 0.00 | 0.00 | 0.00 | 99 | 1014.1 |
| 20260502042644 | 61 | 216 | 0.0 | 0.0 | 0.00 | 0.00 | 0.00 | 99 | 1014.1 |
| 20260502042141 | 61 | 216 | 0.0 | 0.0 | 0.00 | 0.00 | 0.00 | 99 | 1014.1 |
| 20260502041639 | 61 | 216 | 0.0 | 0.0 | 0.00 | 0.00 | 0.00 | 99 | 1014.0 |
| 20260502041135 | 61 | 216 | 0.0 | 0.0 | 0.00 | 0.00 | 0.00 | 99 | 1014.0 |
| 20260502040632 | 61 | 216 | 0.0 | 0.0 | 0.00 | 0.00 | 0.00 | 99 | 1014.0 |
| 20260502040130 | 61 | 216 | 0.0 | 0.0 | 0.00 | 0.00 | 0.00 | 99 | 1014.1 |
| 20260502035625 | 61 | 216 | 0.0 | 0.0 | 0.00 | 0.00 | 0.00 | 99 | 1013.9 |
| 20260502035123 | 61 | 216 | 0.0 | 0.0 | 0.00 | 0.00 | 0.00 | 98 | 1013.9 |
| 20260502034621 | 61 | 216 | 0.0 | 0.0 | 0.00 | 0.00 | 0.00 | 98 | 1013.9 |
| 20260502034119 | 61 | 216 | 0.0 | 0.0 | 0.00 | 0.00 | 0.00 | 98 | 1013.8 |
| 20260502033616 | 61 | 216 | 0.0 | 0.0 | 0.00 | 0.00 | 0.00 | 98 | 1013.9 |
| 20260502033114 | 61 | 216 | 0.0 | 0.0 | 0.00 | 0.00 | 0.00 | 98 | 1013.7 |
| 20260502032609 | 61 | 216 | 0.0 | 0.0 | 0.00 | 0.00 | 0.00 | 98 | 1013.9 |
| 20260502032106 | 62 | 216 | 0.0 | 0.0 | 0.00 | 0.00 | 0.00 | 98 | 1014.1 |
| 20260502031604 | 62 | 216 | 0.0 | 0.0 | 0.00 | 0.00 | 0.00 | 98 | 1014.1 |
| 20260502031101 | 62 | 216 | 0.0 | 0.0 | 0.00 | 0.00 | 0.00 | 98 | 1014.0 |
| 20260502030600 | 62 | 216 | 0.0 | 0.0 | 0.00 | 0.00 | 0.00 | 98 | 1013.9 |
| 20260502030057 | 62 | 216 | 0.0 | 0.0 | 0.00 | 0.00 | 0.00 | 98 | 1014.2 |
| 20260502025555 | 62 | 216 | 0.0 | 0.0 | 0.00 | 0.00 | 0.00 | 97 | 1014.0 |
| 20260502025053 | 62 | 216 | 0.0 | 0.0 | 0.00 | 0.00 | 0.00 | 97 | 1014.0 |
| 20260502024550 | 62 | 216 | 0.0 | 0.0 | 0.00 | 0.00 | 0.00 | 97 | 1014.0 |
| 20260502024048 | 62 | 216 | 0.0 | 0.0 | 0.00 | 0.00 | 0.00 | 97 | 1014.3 |
| 20260502023545 | 62 | 216 | 0.0 | 0.0 | 0.00 | 0.00 | 0.00 | 97 | 1014.0 |
| 20260502023043 | 62 | 216 | 0.0 | 0.0 | 0.00 | 0.00 | 0.00 | 96 | 1014.0 |
| 20260502022539 | 62 | 216 | 0.0 | 0.0 | 0.00 | 0.00 | 0.00 | 96 | 1014.0 |
| 20260502022037 | 63 | 216 | 0.0 | 0.0 | 0.00 | 0.00 | 0.00 | 96 | 1014.0 |
| 20260502021534 | 63 | 216 | 0.0 | 0.0 | 0.00 | 0.00 | 0.00 | 96 | 1014.0 |
| 20260502021031 | 63 | 216 | 0.0 | 0.0 | 0.00 | 0.00 | 0.00 | 96 | 1014.2 |
| 20260502020528 | 63 | 216 | 0.0 | 0.0 | 0.00 | 0.00 | 0.00 | 96 | 1014.0 |
| 20260502020025 | 63 | 216 | 0.0 | 0.0 | 0.00 | 0.00 | 0.00 | 96 | 1014.0 |
| 20260502015523 | 63 | 216 | 0.0 | 0.0 | 0.00 | 0.00 | 0.00 | 95 | 1014.1 |
| 20260502015019 | 63 | 216 | 0.0 | 0.0 | 0.00 | 0.00 | 0.00 | 95 | 1013.9 |
| 20260502014516 | 63 | 216 | 0.0 | 0.0 | 0.00 | 0.00 | 0.00 | 95 | 1014.0 |
| 20260502014013 | 63 | 216 | 0.0 | 0.0 | 0.00 | 0.00 | 0.00 | 94 | 1014.0 |
| 20260502013509 | 63 | 216 | 0.0 | 0.0 | 0.00 | 0.00 | 0.00 | 94 | 1013.9 |
| 20260502013005 | 64 | 216 | 0.0 | 0.0 | 0.00 | 0.00 | 0.00 | 94 | 1013.9 |
| 20260502012503 | 64 | 216 | 0.0 | 0.0 | 0.00 | 0.00 | 0.00 | 94 | 1013.8 |
| 20260502012001 | 64 | 216 | 0.0 | 0.0 | 0.00 | 0.00 | 0.00 | 93 | 1014.0 |
| 20260502011456 | 64 | 216 | 0.0 | 0.0 | 0.00 | 0.00 | 0.00 | 93 | 1013.9 |
| 20260502010953 | 64 | 216 | 0.0 | 0.0 | 0.00 | 0.00 | 0.00 | 93 | 1014.0 |
| 20260502010450 | 64 | 216 | 0.0 | 0.0 | 0.00 | 0.00 | 0.00 | 92 | 1013.9 |
| 20260502005946 | 64 | 216 | 0.0 | 0.0 | 0.00 | 0.00 | 0.00 | 92 | 1013.9 |
| 20260502005444 | 64 | 216 | 0.0 | 0.0 | 0.00 | 0.00 | 0.00 | 92 | 1013.5 |
| 20260502004942 | 64 | 216 | 0.0 | 0.0 | 0.00 | 0.00 | 0.00 | 92 | 1013.8 |
| 20260502004438 | 65 | 216 | 0.0 | 0.0 | 0.00 | 0.00 | 0.00 | 92 | 1013.6 |
| 20260502003935 | 65 | 216 | 0.0 | 0.0 | 0.00 | 0.00 | 0.00 | 91 | 1013.9 |
| 20260502003432 | 65 | 210 | 0.0 | 0.0 | 0.00 | 0.00 | 0.00 | 91 | 1013.8 |
| 20260502002928 | 65 | 210 | 0.0 | 0.0 | 0.00 | 0.00 | 0.00 | 90 | 1013.6 |
| 20260502002426 | 65 | 210 | 0.0 | 0.0 | 0.00 | 0.00 | 0.00 | 90 | 1013.6 |
| 20260502001923 | 65 | 210 | 0.0 | 0.0 | 0.00 | 0.00 | 0.00 | 90 | 1013.4 |
| 20260502001421 | 65 | 209 | 0.0 | 0.0 | 0.00 | 0.00 | 0.00 | 90 | 1013.3 |
| 20260502000918 | 66 | 220 | 0.0 | 0.0 | 0.00 | 0.00 | 0.00 | 89 | 1013.2 |
| 20260502000417 | 66 | 219 | 0.0 | 0.0 | 0.00 | 0.00 | 0.00 | 88 | 1013.0 |
| 20260501235912 | 66 | 218 | 0.0 | 0.0 | 0.00 | 0.00 | 0.00 | 88 | 1012.8 |
| 20260501235408 | 66 | 231 | 0.0 | 0.0 | 0.00 | 0.00 | 0.00 | 88 | 1013.0 |
| 20260501234903 | 66 | 230 | 0.0 | 0.0 | 0.00 | 0.00 | 0.00 | 87 | 1012.8 |
| 20260501234400 | 66 | 230 | 0.0 | 0.0 | 0.00 | 0.00 | 0.00 | 87 | 1012.8 |
| 20260501233859 | 68 | 170 | 0.0 | 0.0 | 0.00 | 0.00 | 0.00 | 87 | 1012.7 |
| 20260501233356 | 68 | 170 | 0.0 | 0.0 | 0.00 | 0.00 | 0.00 | 84 | 1012.5 |
| 20260501232851 | 68 | 165 | 0.0 | 0.0 | 0.00 | 0.00 | 0.00 | 83 | 1012.2 |
| 20260501232349 | 68 | 165 | 0.0 | 0.0 | 0.00 | 0.00 | 0.00 | 82 | 1012.4 |
| 20260501231846 | 68 | 165 | 0.0 | 0.0 | 0.00 | 0.00 | 0.00 | 82 | 1012.3 |
| 20260501231344 | 68 | 165 | 0.0 | 0.0 | 0.00 | 0.00 | 0.00 | 82 | 1012.6 |
| 20260501230842 | 69 | 165 | 0.0 | 0.0 | 0.00 | 0.00 | 0.00 | 79 | 1012.4 |
| 20260501230341 | 69 | 165 | 0.0 | 0.0 | 0.00 | 0.00 | 0.00 | 78 | 1012.4 |
| 20260501225838 | 69 | 165 | 0.0 | 0.0 | 0.00 | 0.00 | 0.00 | 78 | 1012.4 |
| 20260501225336 | 69 | 197 | 0.0 | 0.0 | 0.00 | 0.00 | 0.00 | 78 | 1012.8 |
| 20260501224832 | 69 | 197 | 0.0 | 0.0 | 0.00 | 0.00 | 0.00 | 78 | 1012.9 |
| 20260501224329 | 69 | 197 | 0.0 | 0.0 | 0.00 | 0.00 | 0.00 | 78 | 1012.8 |
| 20260501223825 | 69 | 201 | 0.0 | 0.0 | 0.00 | 0.00 | 0.00 | 81 | 1013.0 |